Back to catalog

STARLINK-2356

AliveCommunicationsVLEO
NORAD 47896·PAYLOAD·🇺🇸 United States

Launched Mar 14, 2021 from Cape Canaveral Space Force Station

Loading…

Next Passes (next 24 hours)

TLE

FreshSource: CelesTrak SupGP

Epoch: Sep 14, 2026, 21:03 UTC

1 47896C 21021AN  26257.87756944 -.00018413  00000+0 -59219-3 0  2576
2 47896  53.1571 120.5298 0001423  92.5103  39.9554 15.31706362    15

Track STARLINK-2356 in real time with AllMySat

Download on the App Store